Flag for Germany Weather past 2 weeks in Westerland, Schleswig-Holstein, Germany

Now
40 °F

Low clouds.


Feels Like: 31 °F
Forecast: 38 / 40 °F
Wind: 17 mph from South

Location: List / Sylt

Current Time: Mar 1, 2015 at 2:33:41 AM

Latest Report: Mar 1, 2015 at 2:00 AM


Visibility: 17 mi

Pressure: 29.50 "Hg

Humidity: 78%

Dew point: 34 °F

Location of WesterlandLocation

Historic Weather in Westerland — Graph

°F

Westerland temperature yesterday

Maximum temperature yesterday: 41 °F (at 1:00 PM)
Minimum temperature yesterday: 37 °F (at 6:00 AM)
Average temperature yesterday: 40 °F

Past Weeks' High & Low Weather Summary

 TemperatureHumidityPressure
High43 °F (Feb 17, 3:00 PM)100% (Feb 14, 5:00 AM)30.58 "Hg (Feb 14, 5:00 AM)
Low31 °F (Feb 14, 5:00 AM)70% (Feb 28, 11:00 PM)29.12 "Hg (Feb 23, 7:00 AM)
Average38 °F90%29.86 "Hg
* Reported Feb 14 1:00 AM — Mar 1 1:00 AM, Westerland, Weather by CustomWeather, © 2015

Note: Actual official high and low records may vary slightly from our data, if they occured in-between our weather recording intervals... More about our weather records

Advertising

Westerland weather history for previous 24 hours

 ConditionsComfort  
Time TempWeatherWind HumidityBarometerVisibility
1:00 AM
Sun, Mar 1
41 °FOvercast.15 mph71%29.55 "Hg19 mi
12:00 AM41 °FLow clouds.17 mph72%29.59 "Hg25 mi
11:00 PM
Sat, Feb 28
41 °FOvercast.17 mph70%29.63 "Hg25 mi
9:00 PM41 °FOvercast.15 mph74%29.73 "Hg19 mi
8:00 PM41 °FOvercast.14 mph76%29.75 "Hg19 mi
7:00 PM41 °FOvercast.14 mph77%29.79 "Hg16 mi
6:00 PM41 °FOvercast.14 mph78%29.81 "Hg13 mi
5:00 PM41 °FOvercast.13 mph79%29.83 "Hg16 mi
4:00 PM41 °FOvercast.14 mph78%29.86 "Hg22 mi
3:00 PM41 °FOvercast.14 mph78%29.88 "Hg6 mi
2:00 PM41 °FHaze.14 mph76%29.90 "Hg43 mi
1:00 PM41 °FOvercast.13 mph81%29.93 "Hg8 mi
12:00 PM40 °FOvercast.12 mph88%29.94 "Hg9 mi
11:00 AM39 °FLow clouds.12 mph90%29.94 "Hg9 mi
10:00 AM39 °FLow clouds.10 mph90%29.96 "Hg12 mi
9:00 AM39 °FPartly sunny.8 mph87%29.98 "Hg19 mi
8:00 AM38 °FPartly sunny.7 mph89%30.00 "Hg22 mi
7:00 AM37 °FPassing clouds.7 mph89%29.99 "Hg25 mi
6:00 AM37 °FClear.6 mph92%29.99 "Hg25 mi
5:00 AM38 °FPassing clouds.6 mph90%30.00 "Hg22 mi
3:00 AM38 °FOvercast.5 mph91%30.03 "Hg22 mi
2:00 AM39 °FOvercast.5 mph85%30.03 "Hg28 mi
Weather by CustomWeather, © 2015

See weather overviewHow to use our weather pages